Location: Stamford Observatory
(41.1241°N, 73.5498°W)
Time: 06:47:54
(UTC-05:00)

Daily predictions for brighter satellites

Satellite Brightness Start Highest point End
(mag) Time Altitude Azimuth Time Altitude Azimuth Time Altitude Azimuth
COSMO-SKYMED 1 2.8 18:09:00 10° N 18:13:22 78° WNW 18:17:41 10° SSW
Cosmos 1340 2.6 18:11:09 10° N 18:14:58 83° E 18:18:44 10° S
Cosmos 1602 3.7 18:11:52 10° S 18:15:41 65° E 18:19:35 10° NNE
Cosmos 1741 Rocket 4.2 18:12:27 10° S 18:17:27 48° ESE 18:22:28 10° NNE
Cosmos 1833 4.4 18:12:36 10° SSW 18:18:18 77° WNW 18:23:58 10° NNE
SL-16 R/B 4.3 18:16:47 10° NW 18:21:45 32° WSW 18:26:40 10° SSW
Resurs 01 Rocket 2.6 18:19:18 10° SE 18:22:59 26° ENE 18:26:39 10° NNE
Meteor 1-11 Rocket 3.8 18:17:34 10° S 18:23:19 67° E 18:29:13 10° NNE
NOAA 12 4.1 18:18:07 10° SSE 18:23:25 73° ENE 18:28:45 10° N
Cosmos 2333 Rocket 3.3 18:21:28 10° N 18:26:12 25° NE 18:30:54 10° ESE
Cosmos 1140 Rocket 3.6 18:21:20 10° SSW 18:26:28 83° WNW 18:31:40 10° NNE
Cosmos 614 Rocket 3.9 18:22:22 10° SSW 18:27:25 76° ESE 18:32:30 10° NNE
FENGYUN 3A 4.0 18:25:28 10° SE 18:30:34 45° ENE 18:35:44 10° N
Resurs 1-3 4.5 18:29:47 10° SE 18:33:31 28° ENE 18:37:17 10° N
ATLAS CENTAUR R/B 3.0 18:31:40 10° S 18:34:55 18° SE 18:36:04 15° ESE
Meteor 1-28 Rocket 4.4 18:31:55 10° N 18:35:36 48° WNW 18:39:17 10° SSW
Cosmos 1570 Rocket 3.9 18:31:09 10° NNW 18:36:23 71° ENE 18:41:36 10° SSE
Cosmos 2181 Rocket 4.1 18:30:09 10° N 18:36:27 89° W 18:42:49 10° S
GPS 2-04 Rocket1 3.8 18:32:38 10° WSW 18:36:32 36° S 18:39:41 15° ESE
Cosmos 1633 3.4 18:35:11 10° SSW 18:38:47 54° W 18:42:25 10° N
USA 229 DEB 3.9 18:32:48 10° NNW 18:39:51 58° NE 18:46:58 10° SE
USA 229 3.9 18:32:54 10° NNW 18:39:56 58° NE 18:47:04 10° SE
Genesis I 3.4 18:36:28 10° NW 18:40:24 75° WSW 18:44:17 10° SSE
Cosmos 1238 Rocket 2.8 18:37:41 10° NNW 18:40:36 57° W 18:43:36 10° S
Okean 1 Rocket 3.1 18:37:11 10° S 18:41:40 88° E 18:46:10 10° N
Cosmos 2074 Rocket 4.0 18:39:13 10° S 18:45:18 57° E 18:51:27 10° NNE
METEOR-M 4.4 18:40:03 10° S 18:45:22 73° WSW 18:50:43 10° NNW
Cosmos 1892 Rocket 4.4 18:41:57 10° NNE 18:45:41 27° ENE 18:48:49 13° SE
Cosmos 1025 Rocket 3.1 18:44:04 10° N 18:48:24 56° E 18:52:43 10° SSE
SL-08 ROCKET BODY 4.4 18:43:27 10° S 18:49:34 70° E 18:55:44 10° NNE
Spot 2 Rocket 3.6 18:45:32 10° SE 18:50:24 51° ENE 18:55:20 10° N
OTV 4 2.2 18:48:28 10° SSW 18:50:43 20° SSE 18:51:22 18° SE
Cosmos 2184 Rocket 4.0 18:45:29 10° S 18:51:40 62° E 18:57:50 10° NNE
Meteor 1-5 Rocket 4.3 18:46:12 10° S 18:52:03 61° E 18:57:51 10° NNE
FengYun 1-2 T 4.1 18:50:04 10° SSE 18:55:31 74° ENE 19:01:02 10° N
Hubble Space Telescope 3.0 19:00:19 10° SSW 19:02:12 13° S 19:03:33 11° SSE
BREEZE-M DEB (TANK) 2.0 19:00:49 10° SW 19:04:43 79° SSE 19:05:20 47° ENE
Envisat 4.0 19:06:50 25° ENE 19:07:05 25° ENE 19:11:10 10° NNE
Cosmos 2208 Rocket 4.4 19:01:59 10° NNW 19:07:24 67° WSW 19:12:43 10° S
SJ-6B 4.0 19:05:04 10° S 19:08:53 45° W 19:12:40 10° NNW
Cosmos 1544 Rocket 3.8 19:05:06 10° SSE 19:09:10 42° E 19:13:15 10° NNE
Nadezhda 3 Rocket 4.3 19:03:45 10° N 19:09:35 43° ENE 19:14:50 13° SE
NOSS 3-1 (C) 4.4 19:03:08 10° NNW 19:10:20 46° NE 19:14:48 25° ESE
NOSS 0 Rocket 4.0 19:05:05 10° NNW 19:11:08 56° ENE 19:15:08 22° SE
Cosmos 405 Rocket 2.9 19:07:16 10° N 19:11:16 53° ENE 19:13:12 27° SE
ALOS 2.5 19:07:50 10° S 19:12:28 70° WSW 19:17:10 10° NNW
Cosmos 2237 Rocket 2.6 19:07:08 10° N 19:12:32 41° ENE 19:14:36 30° ESE
HJ-1C 4.0 19:10:26 10° S 19:13:44 56° W 19:17:04 10° NNW
Cosmos 2297 Rocket 2.9 19:09:34 10° SSE 19:14:23 30° ESE 19:14:23 30° ESE
Cosmos 2333 4.4 19:09:05 10° NNW 19:14:49 76° WSW 19:20:34 10° SSE
H-2A R/B 2.5 19:11:52 10° SSE 19:15:34 87° E 19:19:21 10° N
CZ-2D R/B 3.1 19:14:14 25° SSE 19:16:17 64° ENE 19:20:04 10° N
COSMOS 2428 3.1 19:11:00 10° NNW 19:16:38 64° WSW 19:22:14 10° S
Cosmos 2341 Rocket 4.4 19:14:06 10° SSE 19:19:58 40° E 19:25:52 10° NNE
Cosmos 2154 Rocket 4.0 19:14:59 10° SSE 19:21:09 56° E 19:27:18 10° NNE
Cosmos 2285 Rocket 4.1 19:17:01 10° NNW 19:23:29 84° WSW 19:29:52 10° SSE
Gbstr 26 Del rocket 4.3 19:20:45 10° W 19:24:03 28° NNW 19:25:41 20° NNE
Cosmos 2219 Rocket 2.1 19:19:15 10° NNW 19:24:53 84° ENE 19:28:57 19° SSE
Okean 2 3.6 19:24:36 10° NNW 19:28:47 73° W 19:32:56 10° S
Cosmos 2219 4.3 19:27:27 10° SW 19:32:57 46° WNW 19:38:27 10° NNE
Helios 1A 2.8 19:33:28 51° SSE 19:34:29 81° ENE 19:38:39 10° N
Cosmos 2227 Rocket 2.1 19:29:11 10° S 19:34:43 60° ESE 19:38:28 21° NE
Cosmos 1486 Rocket 4.1 19:29:57 10° S 19:35:06 53° ESE 19:36:14 44° ENE
Helios 1B rocket 2.3 19:31:01 10° NNE 19:35:12 75° ESE 19:39:20 10° S
Atlas Centaur 2 4.0 19:30:35 10° SSW 19:35:14 18° SSE 19:35:47 18° SSE
Abrixas rocket 3.4 19:34:03 10° W 19:37:11 38° NNW 19:37:11 38° NNW
SAR-Lupe-1 4.5 19:44:47 61° WNW 19:44:47 61° WNW 19:47:57 10° NNW
SAR-Lupe-4 4.1 19:44:54 52° SW 19:45:14 55° W 19:48:46 10° NNW
Cosmos 1455 Rocket 2.9 19:42:13 10° S 19:46:36 89° W 19:51:00 10° N
Cosmos 841 Rocket 3.9 19:42:15 10° N 19:46:24 44° NE 19:46:24 44° NE
SL-16 R/B 3.1 19:43:08 10° N 19:47:23 33° NE 19:47:23 33° NE
Cosmos 962 Rocket 4.3 19:45:17 10° S 19:51:26 72° E 19:57:33 10° NNE
Meteor 2-8 Rocket 4.3 19:48:21 10° N 19:54:22 63° E 19:54:42 62° E
Cosmos 1763 Rocket 3.4 19:52:46 10° NNW 19:57:29 70° NNE 19:57:29 70° NNE
Resurs 01 Rocket 3.6 19:55:34 10° SSW 19:59:21 28° W 20:03:10 10° NW
Cosmos 2333 Rocket 2.9 20:05:12 10° NNW 20:10:45 51° WSW 20:12:59 33° SSW
GEOS 3 Rocket 4.3 20:08:20 26° NNE 20:11:03 52° NW 20:16:09 10° WSW
Cosmos 1980 4.0 20:06:14 10° NNW 20:11:49 63° WSW 20:12:50 53° SSW
Cosmos 2082 4.5 20:31:34 10° SW 20:37:06 49° WNW 20:37:59 45° NNW
NOSS 3-1 (A) 4.0 20:36:02 10° NW 20:43:43 76° WSW 20:44:07 74° SSW
Envisat 4.4 20:47:02 34° WNW 20:47:02 34° WNW 20:50:38 10° NNW
ATLAS 2AS CENTAUR R/B 3.8 20:41:56 10° NNW 20:48:06 40° NNE 20:48:06 40° NNE
Cosmos 2237 Rocket 3.8 20:51:34 10° NW 20:56:23 29° WSW 20:56:29 29° WSW
Cosmos 2297 Rocket 3.7 20:53:03 10° SW 20:56:25 30° W 20:56:25 30° W
Cosmos 2227 Rocket 4.3 21:14:54 10° WSW 21:19:11 22° NW 21:20:36 20° NNW
SL-16 R/B 4.5 21:27:18 10° NW 21:29:17 20° NW 21:29:17 20° NW
